Hourly Data Report for September 09, 2006

TORONTO CITY
ONTARIO

43°40'00.000" N
79°24'00.000" W
112.50 m
6158355
71508
XTO

Download Data

Hourly Data (September 2006)
Hourly Data Report for September 9, 2006
TIME
LST
Temp Definition
°C
Dew Point Definition
°C
Rel Hum Definition
%
Precip. Amount Definition
mm

Wind Dir Definition
10's deg

Wind Spd Definition
km/h
Visibility Definition
km
Stn Press Definition
kPa
Hmdx Definition


Wind Chill Definition


Weather Definition


00:00 18.1 17.4 96   LegendMM LegendMM   100.02     LegendNANA
01:00 17.5 17.1 98   LegendMM LegendMM   100.02     LegendNANA
02:00 18.3 17.8 97   LegendMM LegendMM   99.99     LegendNANA
03:00 17.6 17.1 97   LegendMM LegendMM   99.96     LegendNANA
04:00 17.9 17.3 96   LegendMM LegendMM   100.01     LegendNANA
05:00 18.0 17.3 96   LegendMM LegendMM   100.07     LegendNANA
06:00 17.8 16.4 92   LegendMM LegendMM   100.11     LegendNANA
07:00 17.7 16.2 91   LegendMM LegendMM   100.18     LegendNANA
08:00 16.8 15.8 94   LegendMM LegendMM   100.22     LegendNANA
09:00 16.7 15.8 94   LegendMM LegendMM   100.26     LegendNANA
10:00 16.7 15.1 90   LegendMM LegendMM   100.36     LegendNANA
11:00 17.4 14.3 82   LegendMM LegendMM   100.42     LegendNANA
12:00 18.3 14.4 78   LegendMM LegendMM   100.42     LegendNANA
13:00 17.4 13.7 79   LegendMM LegendMM   100.45     LegendNANA
14:00 17.3 13.1 76   LegendMM LegendMM   100.46     LegendNANA
15:00 16.8 12.2 74   LegendMM LegendMM   100.47     LegendNANA
16:00 16.4 12.1 76   LegendMM LegendMM   100.48     LegendNANA
17:00 15.5 11.0 75   LegendMM LegendMM   100.55     LegendNANA
18:00 15.4 10.0 70   LegendMM LegendMM   100.58     LegendNANA
19:00 14.4 9.3 71   LegendMM LegendMM   100.62     LegendNANA
20:00 13.9 9.4 74   LegendMM LegendMM   100.71     LegendNANA
21:00 13.1 9.4 78   LegendMM LegendMM   100.79     LegendNANA
22:00 13.6 9.5 76   LegendMM LegendMM   100.81     LegendNANA
23:00 13.2 9.3 77   LegendMM LegendMM   100.87     LegendNANA

Notes on Data Quality.

Legend

  • E = Estimated
  • M = Missing
  • NA = Not Available*
  • [empty] = Indicates an unobserved value
Date modified: